Zurück zum Katalog

NOAA 16 DEB

AktivSSO
NORAD 41305·DEBRIS·🇺🇸 United States

Gestartet Sep 21, 2000 von Vandenberg Space Force Base

Loading…

Nächste Überflüge (nächste 24 Stunden)

TLE

AktuellSource: Space-Track

Epoche: Sep 14, 2026, 10:34 UTC

1 41305U 00055HH  26257.44056524  .00002062  00000-0  10076-2 0  9991
2 41305  98.7354 248.6235 0035628   7.1732 352.9946 14.18730534550177

Verfolge NOAA 16 DEB in Echtzeit mit AllMySat

Download on the App Store